FW1695 Weather Reports


time (UTC)temp
C
wind
direction
speed
KPH
gust
KPH
rain 1hr
cm
rain 24hr
cm
rain mn
cm
humidity
%
barometer
mb
20260504002059 29 110 0.0 8.0 0.00 0.00 0.00 31 1006.8
20260504001601 29 84 1.6 14.5 0.00 0.00 0.00 31 1006.8
20260504001100 29 125 1.6 14.5 0.00 0.00 0.00 29 1006.6
20260504000556 29 96 1.6 12.9 0.00 0.00 0.00 30 1006.6
20260504000055 30 102 4.8 12.9 0.00 0.00 0.00 30 1006.6
20260503235555 30 113 1.6 17.7 0.00 0.00 0.00 30 1006.4
20260503235058 30 67 8.0 17.7 0.00 0.00 0.00 29 1006.5
20260503234554 30 131 6.4 12.9 0.00 0.00 0.00 29 1006.4
20260503234054 30 37 1.6 9.7 0.00 0.00 0.00 29 1006.4
20260503233554 30 94 0.0 9.7 0.00 0.00 0.00 29 1006.4
20260503233055 30 108 1.6 9.7 0.00 0.00 0.00 29 1006.5
20260503232554 30 63 1.6 9.7 0.00 0.00 0.00 29 1006.5
20260503232056 30 27 1.6 12.9 0.00 0.00 0.00 30 1006.5
20260503231556 30 75 3.2 12.9 0.00 0.00 0.00 30 1006.5
20260503231057 29 285 3.2 12.9 0.00 0.00 0.00 28 1006.4
20260503230553 29 91 1.6 12.9 0.00 0.00 0.00 28 1006.5
20260503230053 30 191 0.0 12.9 0.00 0.00 0.00 28 1006.5
20260503225551 30 143 4.8 12.9 0.00 0.00 0.00 28 1006.5
20260503225051 30 110 0.0 8.0 0.00 0.00 0.00 27 1006.5
20260503224550 30 294 1.6 11.3 0.00 0.00 0.00 28 1006.7
20260503224049 30 95 0.0 12.9 0.00 0.00 0.00 29 1006.7
20260503223549 30 93 0.0 19.3 0.00 0.00 0.00 29 1006.8
20260503223049 31 56 6.4 19.3 0.00 0.00 0.00 29 1006.7
20260503222549 31 70 6.4 19.3 0.00 0.00 0.00 29 1006.8
20260503222050 30 65 1.6 11.3 0.00 0.00 0.00 28 1006.7
20260503221552 30 94 0.0 11.3 0.00 0.00 0.00 28 1006.9
20260503221052 30 121 3.2 19.3 0.00 0.00 0.00 27 1007.0
20260503220547 30 46 1.6 19.3 0.00 0.00 0.00 27 1007.0
20260503220046 31 49 9.7 19.3 0.00 0.00 0.00 27 1007.0
20260503215546 31 110 1.6 14.5 0.00 0.00 0.00 28 1007.0
20260503215044 30 50 1.6 14.5 0.00 0.00 0.00 27 1007.0
20260503214542 30 56 3.2 14.5 0.00 0.00 0.00 29 1007.2
20260503214042 30 314 6.4 14.5 0.00 0.00 0.00 31 1007.2
20260503213542 29 354 3.2 14.5 0.00 0.00 0.00 31 1007.2
20260503213044 30 293 0.0 12.9 0.00 0.00 0.00 30 1007.3
20260503212541 30 69 3.2 17.7 0.00 0.00 0.00 31 1007.5
20260503212042 30 23 3.2 17.7 0.00 0.00 0.00 31 1007.6
20260503211542 30 243 4.8 12.9 0.00 0.00 0.00 30 1007.7
20260503211042 30 70 1.6 11.3 0.00 0.00 0.00 30 1007.7
20260503210538 30 62 1.6 14.5 0.00 0.00 0.00 30 1007.8
20260503210037 30 144 0.0 14.5 0.00 0.00 0.00 30 1007.9
20260503205536 30 333 3.2 11.3 0.00 0.00 0.00 31 1008.0
20260503205035 30 84 1.6 11.3 0.00 0.00 0.00 30 1008.1
20260503204534 31 32 1.6 11.3 0.00 0.00 0.00 31 1008.2
20260503204033 30 175 0.0 16.1 0.00 0.00 0.00 31 1008.2
20260503203536 30 352 6.4 16.1 0.00 0.00 0.00 32 1008.6
20260503203032 30 155 4.8 19.3 0.00 0.00 0.00 32 1008.6
20260503202531 30 77 6.4 19.3 0.00 0.00 0.00 32 1008.8
20260503202034 30 249 4.8 24.1 0.00 0.00 0.00 31 1009.0
20260503201530 30 89 8.0 24.1 0.00 0.00 0.00 31 1008.9
20260503201028 30 18 3.2 16.1 0.00 0.00 0.00 33 1008.9
20260503200528 30 159 0.0 16.1 0.00 0.00 0.00 33 1009.0
20260503200026 30 51 6.4 22.5 0.00 0.00 0.00 33 1009.0
20260503195526 30 131 6.4 22.5 0.00 0.00 0.00 34 1009.1
20260503195024 30 78 3.2 14.5 0.00 0.00 0.00 36 1009.2
20260503194523 30 124 0.0 8.0 0.00 0.00 0.00 36 1009.3
20260503194021 29 139 0.0 9.7 0.00 0.00 0.00 37 1009.3
20260503193520 28 135 1.6 9.7 0.00 0.00 0.00 39 1009.4
20260503193034 28 150 1.6 14.5 0.00 0.00 0.00 38 1009.4
20260503192518 28 71 6.4 14.5 0.00 0.00 0.00 38 1009.6
20260503192018 28 138 6.4 12.9 0.00 0.00 0.00 40 1009.6
20260503191517 28 91 3.2 14.5 0.00 0.00 0.00 41 1009.7
20260503191018 28 99 8.0 19.3 0.00 0.00 0.00 42 1009.8
20260503190517 28 245 0.0 14.5 0.00 0.00 0.00 41 1009.9
20260503190024 27 173 3.2 14.5 0.00 0.00 0.00 42 1009.9
20260503185514 27 121 3.2 16.1 0.00 0.00 0.00 42 1010.0
20260503185013 28 78 8.0 16.1 0.00 0.00 0.00 42 1010.1
20260503184613 27 55 3.2 12.9 0.00 0.00 0.00 44 1010.2
20260503184012 27 75 3.2 12.9 0.00 0.00 0.00 44 1010.5
20260503183512 27 103 1.6 9.7 0.00 0.00 0.00 45 1010.6
20260503183010 27 125 0.0 12.9 0.00 0.00 0.00 46 1010.7
20260503182514 26 127 3.2 12.9 0.00 0.00 0.00 47 1010.8
20260503182014 26 87 3.2 9.7 0.00 0.00 0.00 47 1011.0
20260503181507 26 105 0.0 16.1 0.00 0.00 0.00 47 1011.1
20260503181009 26 87 3.2 16.1 0.00 0.00 0.00 49 1011.2
20260503180508 26 78 1.6 12.9 0.00 0.00 0.00 48 1011.4
20260503180006 26 105 3.2 12.9 0.00 0.00 0.00 48 1011.5
20260503175506 26 130 0.0 11.3 0.00 0.00 0.00 50 1011.6
20260503175004 25 163 1.6 11.3 0.00 0.00 0.00 49 1011.6
20260503174504 25 117 0.0 11.3 0.00 0.00 0.00 50 1011.9
20260503174004 25 66 4.8 11.3 0.00 0.00 0.00 51 1011.9
20260503173606 25 341 0.0 11.3 0.00 0.00 0.00 52 1012.1
20260503173007 25 86 3.2 11.3 0.00 0.00 0.00 54 1012.2
20260503172503 25 75 0.0 6.4 0.00 0.00 0.00 54 1012.4
20260503172001 -17 0.0 0.0 0.00 0.00 0.00 1012.6
20260503171501 -17 0.0 0.0 0.00 0.00 0.00 1012.7
20260503171001 -17 0.0 0.0 0.00 0.00 0.00 1012.8
20260503170600 -17 0.0 0.0 0.00 0.00 0.00 1012.8
20260503170103 -17 0.0 0.0 0.00 0.00 0.00 1012.8
20260503160108 -17 0.0 0.0 0.00 0.00 0.00 1013.4
20260503150544 -17 0.0 0.0 0.00 0.00 0.00 1013.5
20260503140126 -17 0.0 0.0 0.00 0.00 0.00 1012.9
20260503055020 16 242 0.0 6.4 0.00 0.00 0.00 80 1009.2
20260503054529 16 301 0.0 6.4 0.00 0.00 0.00 80 1009.2
20260503054022 16 322 1.6 4.8 0.00 0.00 0.00 80 1009.2
20260503053519 16 281 0.0 4.8 0.00 0.00 0.00 80 1009.1
20260503053018 16 294 0.0 4.8 0.00 0.00 0.00 80 1009.1
20260503052518 16 290 0.0 8.0 0.00 0.00 0.00 79 1009.0
20260503052022 16 335 3.2 8.0 0.00 0.00 0.00 79 1009.0
20260503051516 16 319 0.0 6.4 0.00 0.00 0.00 79 1009.0
20260503051016 16 295 0.0 9.7 0.00 0.00 0.00 79 1008.9
20260503050516 16 308 3.2 9.7 0.00 0.00 0.00 79 1008.8
20260503050016 16 295 0.0 8.0 0.00 0.00 0.00 78 1008.8
20260503045517 17 332 3.2 8.0 0.00 0.00 0.00 78 1008.6
20260503045011 17 343 0.0 6.4 0.00 0.00 0.00 77 1008.6
20260503044513 17 70 0.0 4.8 0.00 0.00 0.00 76 1008.5
20260503044011 17 68 0.0 0.0 0.00 0.00 0.00 76 1008.4
20260503043510 17 84 0.0 0.0 0.00 0.00 0.00 76 1008.3
20260503043010 17 242 0.0 0.0 0.00 0.00 0.00 76 1008.3
20260503042509 17 243 0.0 0.0 0.00 0.00 0.00 76 1008.1
20260503042009 17 243 0.0 0.0 0.00 0.00 0.00 76 1008.2
20260503041508 17 185 0.0 1.6 0.00 0.00 0.00 76 1008.1
20260503041007 17 186 0.0 4.8 0.00 0.00 0.00 76 1008.0
20260503040511 17 204 0.0 4.8 0.00 0.00 0.00 77 1007.9
20260503040006 17 233 0.0 4.8 0.00 0.00 0.00 77 1007.8
20260503035505 17 220 0.0 9.7 0.00 0.00 0.00 77 1007.6
20260503035006 17 231 0.0 9.7 0.00 0.00 0.00 77 1007.6
20260503034503 17 238 1.6 8.0 0.00 0.00 0.00 76 1007.5
20260503034003 17 238 1.6 8.0 0.00 0.00 0.00 76 1007.4
20260503033501 17 217 0.0 9.7 0.00 0.00 0.00 75 1007.3
20260503033002 17 238 1.6 9.7 0.00 0.00 0.00 76 1007.1
20260503032602 17 75 0.0 8.0 0.00 0.00 0.00 75 1007.1
20260503032102 17 139 1.6 8.0 0.00 0.00 0.00 75 1006.8
20260503031559 17 118 0.0 12.9 0.00 0.00 0.00 74 1006.5
20260503031058 18 155 4.8 12.9 0.00 0.00 0.00 74 1006.3
20260503030558 18 153 0.0 14.5 0.00 0.00 0.00 74 1006.0
20260503030057 17 172 1.6 17.7 0.00 0.00 0.00 75 1005.7
20260503025558 17 219 6.4 25.7 0.00 0.00 0.00 75 1005.4
20260503025058 17 200 8.0 25.7 0.00 0.00 0.00 75 1005.1
20260503024557 18 206 8.0 19.3 0.00 0.00 0.00 73 1005.1
20260503024056 18 233 4.8 17.7 0.00 0.00 0.00 72 1005.0
20260503023556 18 177 4.8 17.7 0.00 0.00 0.00 72 1004.9
20260503023058 18 179 6.4 19.3 0.00 0.00 0.00 70 1004.5
20260503022555 19 232 8.0 19.3 0.00 0.00 0.00 70 1004.3
20260503022057 20 170 6.4 17.7 0.00 0.00 0.00 68 1004.1
20260503021554 20 229 6.4 19.3 0.00 0.00 0.00 67 1003.9
20260503021055 20 231 9.7 20.9 0.00 0.00 0.00 65 1003.7
20260503020555 21 197 3.2 20.9 0.00 0.00 0.00 63 1003.7
20260503020057 22 222 3.2 16.1 0.00 0.00 0.00 60 1003.5
20260503015554 22 169 3.2 20.9 0.00 0.00 0.00 57 1003.2
20260503015058 23 155 8.0 20.9 0.00 0.00 0.00 54 1002.9
20260503014605 24 147 0.0 19.3 0.00 0.00 0.00 49 1002.8
20260503014054 25 240 8.0 19.3 0.00 0.00 0.00 49 1002.7
20260503013552 26 182 11.3 19.3 0.00 0.00 0.00 40 1002.6
20260503013052 27 317 0.0 0.0 0.00 0.00 0.00 25 1002.2
20260503012555 27 317 0.0 8.0 0.00 0.00 0.00 25 1002.1
20260503012053 28 319 0.0 8.0 0.00 0.00 0.00 25 1002.0
20260503011552 28 109 0.0 8.0 0.00 0.00 0.00 25 1002.0
20260503011054 28 57 0.0 4.8 0.00 0.00 0.00 24 1001.9
20260503010551 28 77 0.0 9.7 0.00 0.00 0.00 24 1001.8
20260503010052 28 84 1.6 9.7 0.00 0.00 0.00 24 1001.8
20260503005554 29 136 1.6 8.0 0.00 0.00 0.00 24 1001.7
20260503005051 29 28 0.0 8.0 0.00 0.00 0.00 24 1001.7
20260503004550 29 75 1.6 8.0 0.00 0.00 0.00 24 1001.6
20260503004050 29 125 0.0 9.7 0.00 0.00 0.00 24 1001.5
20260503003550 30 85 1.6 11.3 0.00 0.00 0.00 23 1001.5
20260503003056 30 57 1.6 14.5 0.00 0.00 0.00 24 1001.3
20260503002549 30 77 0.0 14.5 0.00 0.00 0.00 22 1001.3